Powrót do katalogu

METEOR 2-2

AktywnyPogodaPO
NORAD 9661·PAYLOAD·🇷🇺 Russia

Wystrzelony Jan 6, 1977 z Plesetsk Cosmodrome

Loading…

Następne Przeloty (najbliższe 24 godziny)

TLE

ŚwieżeSource: Space-Track

Epoka: Sep 14, 2026, 14:12 UTC

1 09661U 77002A   26257.59228274  .00000005  00000-0 -48370-5 0  9992
2 09661  81.2685   8.0087 0011650 101.1841 259.0637 14.04242858542883

Śledź METEOR 2-2 w czasie rzeczywistym z AllMySat

Download on the App Store